When you browse on this site, cookies collect data to enhance your experience and personalize the content and advertising you see.
Visit our Privacy Policy to learn more. By continuing to use the site, you agree to this use of cookies and data.
  • In Czech Republic
  • List of Countries
  • For 7 days
  • Water Temperature
  • Weather Map
  • Weather Widgets
  • user-avatar
    Login

    Hourly Weather Lubango

    Today, 6 December, Friday

    Time Temperature Precipitation Wind Pressure Humidity
    00:00 +14°C° 0 mm 0 mps 607 mmHg 94%
    01:00 +13°C° 0 mm 0 mps 607 mmHg 94%
    02:00 +13°C° 0 mm 0 mps 607 mmHg 94%
    03:00 +14°C° 0 mm 1 mps 606 mmHg 93%
    04:00 +14°C° 0 mm 1 mps 606 mmHg 92%
    05:00 +15°C° 0 mm 1 mps 607 mmHg 89%
    06:00 +16°C° 0 mm 1 mps 607 mmHg 86%
    07:00 +15°C° 0 mm 0 mps 608 mmHg 82%
    08:00 +19°C° 0 mm 1 mps 608 mmHg 75%
    09:00 +21°C° 0 mm 1 mps 609 mmHg 68%
    10:00 +23°C° 0 mm 1 mps 609 mmHg 61%
    11:00 +23°C° 0.2 mm 2 mps 609 mmHg 62%
    12:00 +22°C° 0.2 mm 3 mps 609 mmHg 63%
    13:00 +22°C° 0.2 mm 3 mps 609 mmHg 63%
    14:00 +21°C° 0.2 mm 3 mps 608 mmHg 64%
    15:00 +21°C° 0.2 mm 3 mps 608 mmHg 64%
    16:00 +21°C° 0.2 mm 3 mps 607 mmHg 64%
    17:00 +19°C° 0 mm 3 mps 607 mmHg 71%
    18:00 +18°C° 0 mm 2 mps 607 mmHg 79%
    19:00 +16°C° 0 mm 1 mps 607 mmHg 86%
    20:00 +16°C° 0 mm 1 mps 607 mmHg 87%
    21:00 +15°C° 0 mm 1 mps 607 mmHg 89%
    22:00 +15°C° 0 mm 1 mps 607 mmHg 90%
    23:00 +15°C° 0 mm 1 mps 607 mmHg 90%

    Tomorrow, 7 December, Saturday

    Time Temperature Precipitation Wind Pressure Humidity
    00:00 +14°C° 0 mm 1 mps 607 mmHg 90%
    01:00 +14°C° 0 mm 1 mps 606 mmHg 90%
    02:00 +14°C° 0 mm 1 mps 606 mmHg 89%
    03:00 +14°C° 0 mm 1 mps 606 mmHg 88%
    04:00 +14°C° 0 mm 1 mps 606 mmHg 86%
    05:00 +15°C° 0 mm 1 mps 607 mmHg 83%
    06:00 +15°C° 0 mm 1 mps 607 mmHg 79%
    07:00 +16°C° 0 mm 1 mps 608 mmHg 76%
    08:00 +19°C° 0 mm 1 mps 608 mmHg 70%
    09:00 +20°C° 0 mm 1 mps 609 mmHg 64%
    10:00 +22°C° 0 mm 1 mps 609 mmHg 57%
    11:00 +23°C° 0 mm 1 mps 609 mmHg 56%
    12:00 +23°C° 0 mm 2 mps 609 mmHg 55%
    13:00 +24°C° 0 mm 2 mps 609 mmHg 54%
    14:00 +23°C° 0 mm 2 mps 608 mmHg 57%
    15:00 +22°C° 0 mm 3 mps 607 mmHg 59%
    16:00 +21°C° 0 mm 3 mps 607 mmHg 62%
    17:00 +19°C° 0 mm 3 mps 607 mmHg 70%
    18:00 +18°C° 0 mm 2 mps 607 mmHg 79%
    19:00 +16°C° 0 mm 2 mps 606 mmHg 87%
    20:00 +15°C° 0 mm 2 mps 607 mmHg 89%
    21:00 +15°C° 0 mm 1 mps 607 mmHg 90%
    22:00 +15°C° 0 mm 1 mps 607 mmHg 92%
    23:00 +14°C° 0 mm 1 mps 607 mmHg 92%

    Day after tomorrow, 8 December, Sunday

    Time Temperature Precipitation Wind Pressure Humidity
    00:00 +14°C° 0 mm 2 mps 607 mmHg 92%
    01:00 +14°C° 0 mm 2 mps 606 mmHg 92%
    02:00 +14°C° 0 mm 2 mps 606 mmHg 91%
    03:00 +14°C° 0 mm 1 mps 606 mmHg 90%
    04:00 +13°C° 0 mm 1 mps 606 mmHg 89%
    05:00 +14°C° 0 mm 1 mps 606 mmHg 84%
    06:00 +14°C° 0 mm 1 mps 607 mmHg 79%
    07:00 +15°C° 0 mm 1 mps 607 mmHg 74%
    08:00 +18°C° 0 mm 1 mps 608 mmHg 66%
    09:00 +19°C° 0 mm 1 mps 609 mmHg 59%
    10:00 +20°C° 0 mm 2 mps 609 mmHg 51%
    11:00 +21°C° 0 mm 2 mps 609 mmHg 49%
    12:00 +23°C° 0 mm 2 mps 609 mmHg 47%
    13:00 +24°C° 0 mm 3 mps 609 mmHg 46%
    14:00 +22°C° 0 mm 3 mps 608 mmHg 46%
    15:00 +22°C° 0 mm 3 mps 608 mmHg 46%
    16:00 +21°C° 0 mm 3 mps 607 mmHg 46%
    17:00 +19°C° 0 mm 3 mps 607 mmHg 52%
    18:00 +17°C° 0 mm 2 mps 607 mmHg 59%
    19:00 +15°C° 0 mm 1 mps 606 mmHg 66%
    20:00 +15°C° 0 mm 1 mps 606 mmHg 63%
    21:00 +14°C° 0 mm 1 mps 606 mmHg 61%
    22:00 +14°C° 0 mm 1 mps 607 mmHg 59%
    23:00 +13°C° 0 mm 1 mps 606 mmHg 56%

    9 December, Monday

    Time Temperature Precipitation Wind Pressure Humidity
    00:00 +13°C° 0 mm 1 mps 606 mmHg 54%
    01:00 +13°C° 0 mm 1 mps 605 mmHg 51%
    02:00 +12°C° 0 mm 1 mps 605 mmHg 50%
    03:00 +12°C° 0 mm 1 mps 605 mmHg 50%
    04:00 +12°C° 0 mm 1 mps 605 mmHg 49%
    05:00 +13°C° 0 mm 1 mps 606 mmHg 48%
    06:00 +14°C° 0 mm 1 mps 606 mmHg 47%
    07:00 +15°C° 0 mm 1 mps 607 mmHg 47%
    08:00 +18°C° 0 mm 1 mps 608 mmHg 41%
    09:00 +19°C° 0 mm 2 mps 609 mmHg 36%
    10:00 +21°C° 0 mm 2 mps 610 mmHg 31%
    11:00 +22°C° 0 mm 3 mps 609 mmHg 30%
    12:00 +22°C° 0 mm 3 mps 609 mmHg 30%
    13:00 +24°C° 0 mm 3 mps 609 mmHg 29%
    14:00 +24°C° 0 mm 3 mps 609 mmHg 30%
    15:00 +22°C° 0 mm 4 mps 608 mmHg 32%
    16:00 +22°C° 0 mm 4 mps 608 mmHg 33%
    17:00 +20°C° 0 mm 3 mps 607 mmHg 42%
    18:00 +17°C° 0 mm 2 mps 606 mmHg 51%
    19:00 +15°C° 0 mm 1 mps 606 mmHg 60%
    20:00 +14°C° 0 mm 1 mps 606 mmHg 60%
    21:00 +14°C° 0 mm 1 mps 606 mmHg 59%
    22:00 +13°C° 0 mm 1 mps 606 mmHg 59%
    23:00 +13°C° 0 mm 1 mps 606 mmHg 61%

    10 December, Tuesday

    Time Temperature Precipitation Wind Pressure Humidity
    00:00 +12°C° 0 mm 1 mps 606 mmHg 63%
    01:00 +12°C° 0 mm 1 mps 606 mmHg 65%
    02:00 +11°C° 0 mm 1 mps 605 mmHg 65%
    03:00 +11°C° 0 mm 1 mps 605 mmHg 64%
    04:00 +11°C° 0 mm 1 mps 605 mmHg 63%
    05:00 +12°C° 0 mm 1 mps 605 mmHg 60%
    06:00 +13°C° 0 mm 1 mps 606 mmHg 57%
    07:00 +14°C° 0 mm 1 mps 607 mmHg 53%
    08:00 +16°C° 0 mm 2 mps 608 mmHg 47%
    09:00 +18°C° 0 mm 2 mps 609 mmHg 40%
    10:00 +20°C° 0 mm 3 mps 610 mmHg 33%
    11:00 +21°C° 0 mm 3 mps 609 mmHg 32%
    12:00 +22°C° 0 mm 3 mps 609 mmHg 32%
    13:00 +24°C° 0 mm 3 mps 609 mmHg 31%
    14:00 +22°C° 0 mm 3 mps 609 mmHg 32%
    15:00 +22°C° 0 mm 3 mps 608 mmHg 33%
    16:00 +22°C° 0 mm 3 mps 608 mmHg 34%
    17:00 +20°C° 0 mm 2 mps 607 mmHg 44%
    18:00 +17°C° 0 mm 2 mps 607 mmHg 54%
    19:00 +15°C° 0 mm 1 mps 606 mmHg 64%
    20:00 +14°C° 0 mm 1 mps 606 mmHg 66%
    21:00 +14°C° 0 mm 1 mps 606 mmHg 68%
    22:00 +12°C° 0 mm 0 mps 607 mmHg 70%
    23:00 +13°C° 0 mm 1 mps 606 mmHg 70%

    11 December, Wednesday

    Time Temperature Precipitation Wind Pressure Humidity
    00:00 +12°C° 0 mm 1 mps 606 mmHg 70%
    01:00 +12°C° 0 mm 1 mps 606 mmHg 70%
    02:00 +12°C° 0 mm 1 mps 606 mmHg 66%
    03:00 +12°C° 0 mm 1 mps 605 mmHg 62%
    04:00 +12°C° 0 mm 1 mps 605 mmHg 57%
    05:00 +13°C° 0 mm 1 mps 606 mmHg 54%
    06:00 +14°C° 0 mm 1 mps 607 mmHg 51%
    07:00 +15°C° 0 mm 1 mps 607 mmHg 48%
    08:00 +17°C° 0 mm 2 mps 608 mmHg 41%
    09:00 +20°C° 0 mm 2 mps 609 mmHg 34%
    10:00 +22°C° 0 mm 3 mps 610 mmHg 27%
    11:00 +24°C° 0 mm 3 mps 610 mmHg 27%
    12:00 +25°C° 0 mm 3 mps 610 mmHg 26%
    13:00 +25°C° 0 mm 3 mps 610 mmHg 26%
    14:00 +25°C° 0 mm 3 mps 609 mmHg 27%
    15:00 +25°C° 0 mm 4 mps 609 mmHg 28%
    16:00 +23°C° 0 mm 4 mps 608 mmHg 29%
    17:00 +21°C° 0 mm 3 mps 608 mmHg 40%
    18:00 +18°C° 0 mm 2 mps 607 mmHg 51%
    19:00 +16°C° 0 mm 1 mps 606 mmHg 62%
    20:00 +15°C° 0 mm 1 mps 607 mmHg 64%
    21:00 +14°C° 0 mm 1 mps 607 mmHg 65%
    22:00 +14°C° 0 mm 1 mps 607 mmHg 67%
    23:00 +14°C° 0 mm 1 mps 607 mmHg 61%
    Show more